Regional Weather Roundup
Issued by NWS

Home | Current Version | Previous Version | Graphics & Text | Print | Product List | Glossary On
Versions: 1 2 3 4 5 6 7 8 9 10 11 12 13 14 15 16 17 18 19 20 21 22 23 24 25 26 27 28 29 30 31 32 33 34 35 36 37 38 39 40 41 42 43 44 45 46 47 48 49 50
694
ASUS44 KLIX 300605
RWRLA
LOUISIANA WEATHER ROUNDUP
NATIONAL WEATHER SERVICE NEW ORLEANS LA
100 AM CDT WED JUL 30 2014

NOTE: "FAIR" INDICATES FEW OR NO CLOUDS BELOW 12,000 FEET WITH NO
      SIGNIFICANT WEATHER AND/OR OBSTRUCTIONS TO VISIBILITY.
      SKY/WX - SKY CONDITION AND SIGNIFICANT WEATHER.
      TMP - AIR TEMPERATURE.    DP   - DEWPOINT TEMPERATURE.
      RH  - RELATIVE HUMIDITY.  PRES - PRESSURE.
      HX  - HEAT INDEX.         WCI  - WIND CHILL INDEX.

*  THESE STATIONS ARE NOT NWS OR FAA STATIONS AND ARE NOT UNDER
   NWS QUALITY CONTROL.

LAZ040-048-061>063-065-066-069-300700-
SOUTHEAST LOUISIANA

CITY           SKY/WX    TMP DP  RH WIND       PRES   REMARKS
N.O. AUDUBON     N/A     82  67  61 MISG        N/A
6HR MIN TEMP:  78; 6HR MAX TEMP:  87;

N.O. INTL ARPT PTCLDY    81  66  60 NE16      30.05R
6HR MIN TEMP:  77; 6HR MAX TEMP:  86;

N.O. LAKEFRONT CLEAR     81  68  64 NE22      30.05S
6HR MIN TEMP:  81; 6HR MAX TEMP:  86;

N.O. DOWNTOWN* CLOUDY    82  64  54 N7        30.05S
6HR MIN TEMP:  82; 6HR MAX TEMP:  88;

SLIDELL        CLEAR     72  67  84 CALM      30.05S
6HR MIN TEMP:  72; 6HR MAX TEMP:  86;

BATON ROUGE    CLEAR     73  67  81 NE5       30.06S
6HR MIN TEMP:  73; 6HR MAX TEMP:  86;

BOOTHVILLE     CLEAR     76  72  87 W3        30.03F
6HR MIN TEMP:  76; 6HR MAX TEMP:  83;

BELLE CHASSE   CLEAR     78  66  66 NE6       30.04S
6HR MIN TEMP:  72; 6HR MAX TEMP:  86;

BOGALUSA*      FAIR      72  64  77 CALM      30.08S
6HR MIN TEMP:  72; 6HR MAX TEMP:  86;

GALLIANO*      NOT AVBL
NEW ROADS*     FAIR      73  67  81 NE3       30.07R
6HR MIN TEMP:  72; 6HR MAX TEMP:  84;

GONZALES*      FAIR      72  71  97 CALM      30.05S
6HR MIN TEMP:  71; 6HR MAX TEMP:  85;

HAMMOND*       CLEAR     73  64  73 CALM      30.08S
HOUMA*         CLEAR     71  67  86 CALM      30.04S
6HR MIN TEMP:  71; 6HR MAX TEMP:  86;

PORT FOURCHON* CLEAR     82  70  65 NE3       30.05F

$$

LAZ041-044-053-054-300700-
SOUTHWEST LOUISIANA

CITY           SKY/WX    TMP DP  RH WIND       PRES   REMARKS
LAKE CHARLES   CLEAR     73  71  93 CALM      30.04S
6HR MIN TEMP:  73; 6HR MAX TEMP:  86;

LAFAYETTE      PTCLDY    75  72  90 CALM      30.05S
6HR MIN TEMP:  75; 6HR MAX TEMP:  84;

PATTERSON      CLEAR     73  72  94 CALM      30.08F
6HR MIN TEMP:  73; 6HR MAX TEMP:  84;

SALT POINT       N/A     77  72  84 CALM      30.04S
6HR MIN TEMP:  77; 6HR MAX TEMP:  88;

NEW IBERIA     CLEAR     74  70  87 CALM      30.05S
6HR MIN TEMP:  73; 6HR MAX TEMP:  86;

CHENAULT AIRPK CLEAR     75  70  83 CALM      30.05S
6HR MIN TEMP:  75; 6HR MAX TEMP:  86;


$$

LAZ027-028-300700-
CENTRAL LOUISIANA

CITY           SKY/WX    TMP DP  RH WIND       PRES   REMARKS
FORT POLK      CLEAR     75  68  78 E7        30.07R
6HR MIN TEMP:  73; 6HR MAX TEMP:  86;

ALEXANDRIA INT CLEAR     75  68  78 E5        30.06R
6HR MIN TEMP:  75; 6HR MAX TEMP:  89;

ALEXANDRIA     CLEAR     73  68  84 NE3       30.08R
6HR MIN TEMP:  72; 6HR MAX TEMP:  89;


$$

LAZ001-002-300700-
NORTHWEST LOUISIANA

CITY           SKY/WX    TMP DP  RH WIND       PRES   REMARKS
SHREVEPORT     PTCLDY    74  65  73 E6        30.07R
6HR MIN TEMP:  74; 6HR MAX TEMP:  88;

BARKSDALE AFB  CLEAR     73  64  74 SE3       30.07S
6HR MIN TEMP:  73; 6HR MAX TEMP:  87;

DTN SHREVEPORT CLEAR     75  64  68 SE5       30.07S
6HR MIN TEMP:  75; 6HR MAX TEMP:  87;


$$

LAZ014-016-300700-
NORTHEAST LOUISIANA

CITY           SKY/WX    TMP DP  RH WIND       PRES   REMARKS
MONROE         CLEAR     70  61  73 E5        30.08F
6HR MIN TEMP:  70; 6HR MAX TEMP:  84;

TALLULAH       CLEAR     69  61  75 E6        30.08S
6HR MIN TEMP:  69; 6HR MAX TEMP:  83;


$$




USA.gov is the U.S. government's official web portal to all federal, state and local government web resources and services.